User: anonymous   Login
Location: Stillwell
(40.4602°N, 82.0928°W)
Time: 20:04:47
(UTC-04:00)
Language:

Cosmos 2333 Rocket - Orbit

View from above orbital plane
View from above orbital plane
View from above satellite
View from above satellite

Ground track
Ground track

The orbit data is extracted from the following two-line orbital elements,

1 24298U 96051B   16147.90296118 +.00000089 +00000-0 +74303-4 0  9999
2 24298 070.8335 156.3134 0013053 029.8406 330.3455 14.12401785017012
Epoch (UTC): 26 May 2016 21:40:15
Eccentricity: 0.0013053
inclination: 70.8335°
perigee height: 842 km
apogee height: 860 km
right ascension of ascending node: 156.3134°
argument of perigee: 29.8406°
revolutions per day: 14.12401785
mean anomaly at epoch: 330.3455°
orbit number at epoch: 1701

The dashed part of the orbit path shows where the satellite is in the earth's shadow,  

DLR